Location: Fours
(44.3167°N, 6.7000°E)
Time: 06:38:31
(UTC+00:00)

Cosmos 2218 Rocket - Pass Details

Date: 04 June 2022
Orbit: 956 x 1005 km, 82.9° (Epoch: 03 July)

Event Time Altitude Azimuth Distance (km) Brightness Sun altitude
Rises 00:28:40 0° 1° (N) 3,688 8.4 -22.0°
Reaches altitude 10° 00:31:43 10° 15° (NNE) 2,745 7.5 -21.9°
Maximum altitude 00:36:46 25° 69° (ENE) 1,893 5.9 -21.6°
Drops below altitude 10° 00:41:50 10° 122° (ESE) 2,757 6.2 -21.4°
Enters shadow 00:43:58 - 132° (SE) 3,412 6.6 -21.2°
